Theta_e
312 312 312 313 313 313 314 314 315 315 315 315 316 317 317 318 319 320 324 329 328 324 325 333 336 334 339 336 338 340 343 345 342 344 343 340 340 340 340 342 342 342 346 351 353
312 312 312 313 313 314 314 314 315 315 315 316 316 317 317 322 323 329 328 326 325 323 324 327 328 330 332 334 336 341 341 342 342 338 341 344 340 342 343 340 347 347 349 352 353
312 312 312 313 313 313 314 314 315 315 315 316 317 317 318 322 326 329 329 329 326 323 323 325 327 329 333 335 335 341 343 342 343 336 337 340 342 340 339 339 343 348 350 352 353
312 312 312 312 313 313 314 314 315 315 315 316 317 317 318 322 337 332 326 322 321 322 323 325 328 330 333 336 336 339 340 339 337 336 337 339 341 341 340 340 342 349 350 350 351
312 312 312 313 313 313 314 314 315 315 315 316 317 318 318 329 332 327 322 320 320 320 327 329 330 331 334 335 336 337 340 338 336 336 335 337 338 340 341 343 343 349 349 350 350
311 312 313 313 313 313 314 314 315 315 315 316 317 317 320 328 330 330 324 322 324 326 327 328 330 331 333 335 337 338 339 337 336 336 335 335 336 337 338 344 344 348 349 349 350
311 312 312 313 313 314 314 315 315 315 316 316 316 317 323 324 324 329 326 324 326 326 328 329 329 330 332 335 336 337 337 337 336 336 335 335 338 337 337 339 343 348 348 349 350
311 311 312 313 313 314 314 315 315 316 316 316 316 317 325 325 324 324 328 327 325 326 327 329 329 329 330 333 335 336 337 338 337 338 334 333 339 338 337 338 343 348 348 348 350
311 311 312 313 313 314 314 315 315 316 316 316 318 329 327 325 322 322 325 327 327 327 327 327 327 328 331 333 335 336 337 339 337 337 333 332 340 339 338 339 342 346 348 348 350
310 311 312 312 313 314 315 315 316 316 317 318 317 325 325 324 324 325 326 326 327 327 327 327 326 327 331 332 335 337 338 339 340 338 333 332 334 338 338 338 339 344 348 349 350
309 310 311 312 313 313 315 317 325 329 323 324 326 324 324 324 324 324 325 326 326 327 329 328 327 327 330 332 333 334 339 341 339 339 332 332 334 335 337 336 338 341 350 350 350
308 309 311 312 313 313 315 324 322 320 322 323 325 324 325 324 325 324 325 326 326 327 328 328 329 329 330 331 333 334 335 338 338 336 333 332 333 335 336 337 335 335 346 350 357
307 308 310 312 313 314 319 321 320 320 321 322 322 323 323 323 323 325 326 326 327 327 327 328 329 330 329 329 331 333 333 333 333 335 334 333 332 334 336 336 339 341 341 350 357
306 307 308 311 312 318 317 321 319 320 323 324 324 324 323 323 324 324 326 326 328 327 328 328 329 329 329 328 329 330 331 332 332 333 331 334 334 337 336 340 342 344 344 351 363
306 307 307 310 316 317 322 320 319 321 323 327 326 324 323 324 325 324 325 327 328 328 328 328 328 327 327 328 328 330 331 332 332 331 331 332 332 341 339 341 345 347 349 357 361
306 307 307 312 311 316 316 318 320 323 323 326 325 325 324 324 325 326 325 326 327 328 329 328 328 328 328 328 329 330 329 331 331 331 332 333 333 341 339 342 348 352 354 357 358
305 306 307 309 317 317 316 318 322 323 325 325 325 326 325 325 325 327 327 327 327 328 329 329 328 329 328 327 329 329 329 331 332 332 332 334 332 340 341 339 346 355 354 356 357
305 306 308 308 314 316 316 321 323 324 324 327 326 326 325 325 326 326 327 327 327 327 328 329 329 327 329 328 329 331 329 332 336 334 337 337 339 338 341 339 349 353 354 356 357
306 311 310 314 309 314 317 321 323 325 326 326 326 325 326 326 326 326 326 327 328 328 329 329 329 330 329 329 329 331 330 330 331 332 333 337 336 337 338 342 347 352 355 356 356
307 315 318 316 315 315 319 321 322 324 324 325 324 325 325 326 326 326 326 327 327 329 329 329 330 330 330 329 330 330 333 332 331 336 336 333 339 341 340 344 350 351 353 355 356
307 319 319 317 315 316 320 321 322 323 323 323 324 324 325 326 327 327 326 327 328 328 329 329 329 331 330 329 330 331 331 334 333 333 336 339 341 338 338 339 345 347 352 355 356
317 321 318 315 315 316 320 323 323 324 322 322 322 323 325 326 327 328 327 327 328 328 328 329 328 330 330 331 331 331 331 331 333 338 336 338 338 336 337 338 343 348 352 350 346
320 320 318 314 316 318 319 322 324 324 323 323 321 322 324 325 326 328 328 327 327 327 328 329 329 329 330 331 332 331 331 332 335 339 340 340 338 338 340 340 340 347 347 347 349
322 321 318 315 315 319 322 322 323 322 321 321 322 322 322 323 325 327 328 328 327 326 325 327 330 333 328 332 331 333 331 331 334 337 336 337 342 343 341 336 338 347 348 350 349
319 323 323 318 317 318 321 322 322 322 321 320 321 321 321 322 324 325 326 328 328 327 326 329 336 330 330 330 331 331 333 332 331 331 333 338 342 340 337 334 333 349 349 349 348
321 322 322 322 322 320 317 320 322 322 322 322 321 321 321 322 323 325 325 327 328 330 329 328 334 332 331 330 330 330 333 335 336 332 331 333 340 335 333 332 333 345 346 346 347
317 317 318 321 320 322 321 321 321 322 322 322 323 322 322 323 322 322 325 326 332 334 338 335 333 337 333 330 330 331 330 331 331 333 331 335 339 336 337 336 336 345 345 345 345
Wind_Speed
7 7 7 8 8 8 8 9 9 10 10 11 11 10 10 9 8 9 6 9 10 10 11 4 7 10 14 15 14 15 5 7 8 20 9 36 18 7 19 10 6 10 14 19 20
8 8 8 8 9 9 9 9 10 10 11 11 11 11 10 10 8 12 13 10 11 11 8 7 11 10 13 18 19 17 5 24 22 12 8 27 28 5 27 31 6 12 15 18 21
8 9 9 9 10 10 11 11 11 11 11 11 11 10 11 11 8 4 11 10 14 12 7 9 15 16 18 18 23 9 10 25 26 7 7 7 39 41 29 9 15 15 18 19 19
9 10 11 11 11 11 11 11 12 12 12 11 11 10 11 9 2 3 3 8 12 10 9 13 14 17 16 18 23 12 11 16 8 6 4 7 7 29 25 14 17 18 21 21 19
10 11 11 12 12 13 13 13 12 12 12 11 11 9 9 8 5 2 4 5 8 7 10 14 17 17 16 20 24 8 9 2 7 5 5 6 3 4 23 14 12 17 20 20 18
12 12 12 13 13 14 14 14 13 13 12 11 10 9 7 14 1 4 2 4 3 9 12 13 15 18 17 18 18 7 15 11 4 6 4 7 10 5 9 9 8 13 16 16 15
13 13 14 14 14 15 14 15 14 13 12 10 9 10 10 16 4 5 5 7 7 10 13 12 11 11 15 18 15 15 15 12 8 12 2 11 11 14 15 28 11 9 12 14 12
13 13 14 15 15 15 15 15 14 13 11 10 9 9 9 4 8 9 9 10 8 9 10 7 9 15 21 21 19 12 17 11 8 36 2 7 5 8 15 33 28 9 11 11 11
13 13 13 14 15 15 15 15 14 13 11 9 7 5 18 8 9 11 11 11 10 9 10 9 11 17 19 17 15 15 16 11 7 33 9 7 12 18 27 40 8 9 11 9 10
13 13 13 13 14 14 14 14 12 12 11 10 12 9 16 10 7 7 10 11 8 11 13 12 15 13 15 15 15 5 16 15 18 25 2 8 9 14 4 5 9 14 14 12 12
13 14 13 12 11 12 10 9 10 1 7 15 4 13 2 7 7 9 11 10 12 12 12 17 12 14 18 19 19 21 19 16 10 37 2 9 5 4 9 4 3 5 18 14 14
14 13 13 11 9 7 3 6 5 7 12 15 22 20 13 6 9 11 12 12 15 13 16 12 12 14 17 18 20 15 8 13 16 14 5 9 12 3 6 1 8 7 11 13 27
13 13 12 10 7 3 4 8 7 9 9 20 24 22 20 16 16 15 14 15 16 14 15 16 17 13 12 12 10 13 13 13 13 5 4 9 13 12 7 4 2 8 7 12 35
13 12 11 6 2 2 6 4 6 6 6 15 20 15 19 18 20 19 18 16 13 15 14 14 17 7 9 11 14 14 15 14 13 10 9 7 10 7 9 13 9 13 8 17 25
12 11 9 7 4 1 1 5 6 4 6 7 17 7 16 20 13 22 17 16 15 14 10 13 12 14 10 12 12 12 13 12 4 8 12 16 8 13 16 3 17 18 20 26 19
12 11 8 3 8 6 8 6 4 6 11 6 8 10 15 22 21 10 20 17 13 14 14 14 21 8 12 11 12 11 15 11 8 11 11 15 11 9 7 12 16 20 20 15 13
12 11 9 12 7 4 6 6 6 9 13 13 9 13 17 18 18 13 14 16 14 11 14 15 16 11 15 14 16 8 13 8 9 11 12 7 8 6 15 10 13 19 18 17 15
12 11 11 12 8 8 5 9 11 10 22 7 4 13 17 18 20 20 16 15 18 20 13 13 14 19 14 16 10 13 16 12 12 6 5 14 7 5 15 17 21 21 19 17 16
10 7 9 5 12 8 11 12 11 16 14 17 11 13 12 13 16 19 21 18 18 18 17 15 16 10 18 13 16 16 11 18 18 16 5 7 5 6 11 15 21 20 16 15 16
8 7 12 10 8 9 10 16 17 21 8 9 7 11 14 17 16 17 17 19 19 18 20 18 11 16 15 14 16 18 10 10 9 9 12 9 13 11 8 12 17 19 20 15 14
8 7 11 7 8 12 10 16 19 28 4 5 10 16 20 19 16 18 17 18 17 19 16 13 12 15 11 10 14 8 11 10 14 8 1 7 3 5 13 23 12 17 19 14 14
6 8 8 10 11 14 13 19 18 18 9 8 12 15 18 13 15 14 14 15 17 15 16 12 9 13 19 15 14 17 15 16 9 9 8 9 9 17 13 5 13 22 14 12 11
6 10 6 11 7 11 18 21 23 9 8 12 11 13 15 13 9 12 15 6 7 4 3 12 10 12 14 16 14 16 20 13 12 11 15 5 6 1 17 20 19 18 15 10 7
7 3 8 11 19 17 15 17 11 9 16 13 14 13 14 11 14 10 17 2 2 9 10 10 9 9 14 14 11 14 15 16 16 9 10 4 9 12 18 13 26 11 13 9 5
6 6 5 5 12 14 14 13 15 15 12 14 12 11 10 9 14 14 17 17 6 8 9 6 9 12 16 19 18 18 18 22 19 17 16 8 13 3 5 11 21 3 6 9 6
8 9 15 15 5 7 6 8 11 11 13 13 14 15 17 15 16 15 16 13 14 10 13 11 9 11 17 19 21 20 8 6 31 16 15 14 9 5 8 6 15 6 6 9 7
7 9 7 11 7 9 10 13 14 13 14 6 11 12 14 12 19 25 19 16 12 10 10 11 10 10 14 17 18 19 20 14 13 10 12 9 12 18 3 5 18 12 10 9 7
Wind_Direction
358 357 358 352 349 344 344 343 346 341 340 344 339 332 324 307 267 242 251 240 238 291 313 320 299 274 287 278 267 96 352 302 316 122 162 78 49 108 88 94 75 66 121 141 153
346 345 347 344 339 334 337 340 338 338 338 340 336 332 324 310 265 237 238 242 260 275 301 287 285 281 272 284 275 95 358 283 272 16 138 128 160 134 70 326 143 105 118 144 154
335 336 335 334 330 329 332 336 333 335 334 337 334 332 320 312 289 175 207 248 264 259 259 268 282 285 284 282 279 131 200 263 258 26 3 193 118 121 134 256 238 154 151 159 159
325 327 326 324 324 324 327 329 328 332 331 334 333 333 315 309 323 155 252 244 244 240 241 264 270 271 271 269 270 190 128 281 60 108 296 18 142 132 130 195 211 158 166 165 166
317 317 317 317 320 321 323 321 323 325 327 330 331 333 319 279 249 42 348 251 230 212 235 250 261 266 262 271 288 266 295 149 239 168 307 351 285 42 165 149 135 156 169 172 173
312 311 311 312 316 316 316 315 318 319 322 324 325 325 306 274 351 299 46 242 237 235 241 244 259 265 297 289 292 319 298 268 254 193 191 268 351 150 359 120 132 161 175 182 181
307 308 308 308 309 309 310 310 312 312 317 316 318 315 283 251 244 239 234 234 242 233 255 239 266 282 271 268 283 261 273 256 287 261 291 219 45 37 21 301 287 189 186 189 183
303 304 305 305 306 304 305 305 307 307 307 307 308 306 263 217 242 241 237 249 243 240 250 290 259 266 273 281 290 260 262 29 66 277 252 278 123 166 157 207 243 188 189 194 172
299 300 302 302 303 302 301 301 301 299 295 294 300 289 274 228 254 234 226 241 235 238 242 251 263 258 253 250 259 241 245 170 215 232 292 258 175 200 196 213 193 163 185 189 161
298 298 298 298 302 303 303 300 297 284 282 276 253 272 244 247 226 213 222 231 252 255 236 230 238 240 240 256 241 139 360 331 304 273 81 286 267 173 84 181 191 173 168 178 172
297 295 296 296 300 308 317 318 286 236 237 239 199 241 188 247 243 246 227 226 235 245 257 232 231 230 234 237 266 293 151 143 258 272 320 285 315 229 130 284 235 155 160 169 182
297 297 294 293 295 305 334 328 17 318 295 265 259 255 257 241 272 229 213 222 223 237 233 261 223 258 249 253 260 305 280 218 220 211 217 287 289 306 115 221 2 334 166 164 131
300 297 292 292 298 307 282 295 316 323 268 274 245 242 234 230 243 249 207 225 248 225 246 245 247 213 249 273 277 269 284 293 283 328 249 251 257 241 122 243 188 64 25 130 141
299 298 294 280 255 258 261 267 322 312 276 268 217 223 226 225 236 235 214 226 227 254 245 251 255 250 256 255 266 260 263 258 273 300 276 342 280 160 200 204 145 98 117 112 118
301 298 292 260 257 213 294 315 302 283 272 246 180 194 209 203 267 197 221 214 247 230 253 257 237 268 221 252 239 272 281 308 306 277 275 280 276 144 243 7 93 92 80 119 132
298 293 284 291 263 223 317 288 288 234 238 197 154 195 219 208 235 230 201 222 231 256 258 250 280 260 269 237 259 264 275 267 272 264 255 245 250 121 111 165 105 102 103 118 146
292 286 270 231 184 240 274 247 223 237 231 270 204 208 208 212 218 203 195 208 224 221 246 243 248 234 253 240 235 243 262 239 235 230 237 253 215 91 114 104 104 116 126 137 153
291 284 269 240 225 266 253 225 235 232 248 266 326 208 214 217 207 227 212 219 218 244 251 218 232 217 213 241 239 211 240 247 242 271 78 331 312 115 120 125 113 119 131 146 155
297 296 268 233 224 223 228 224 217 248 234 269 220 248 258 242 244 197 223 229 221 214 248 268 266 210 203 203 238 242 208 255 275 288 232 179 268 168 143 140 127 124 140 160 160
303 258 248 188 194 197 227 242 238 242 294 302 266 255 234 255 222 238 218 226 246 227 210 254 290 274 181 208 220 247 263 229 250 275 281 282 60 8 90 167 131 148 152 161 169
283 238 158 193 180 212 225 232 236 260 318 270 283 276 279 281 261 221 234 240 220 248 215 217 252 276 206 193 240 206 253 263 262 238 237 340 252 155 108 276 162 156 137 160 176
268 264 169 174 196 223 232 237 255 269 152 265 266 283 288 284 301 292 226 238 228 224 244 205 242 243 270 195 200 257 221 226 258 271 234 283 196 175 200 177 161 123 136 161 179
259 214 176 188 227 226 226 251 244 253 275 263 239 263 280 289 301 296 284 12 33 190 358 247 225 253 262 268 205 214 243 258 236 241 270 167 157 335 16 35 345 121 139 131 130
286 226 161 209 246 287 287 219 240 217 275 274 269 258 260 249 268 276 282 233 111 286 15 320 264 220 252 238 252 213 240 246 256 264 262 280 98 41 36 45 307 94 125 141 152
249 274 0 183 222 246 263 301 219 244 206 244 259 262 271 261 257 252 264 294 253 239 263 276 268 278 270 270 282 273 241 220 233 236 249 164 124 179 140 123 254 111 153 151 147
294 343 344 271 333 295 228 242 266 264 241 211 237 240 234 249 261 264 256 278 278 244 207 243 247 264 275 278 270 270 224 65 265 227 238 235 163 236 149 160 224 228 173 148 143
347 293 274 300 204 239 239 230 237 235 261 280 270 233 249 267 241 251 291 304 290 313 314 218 241 237 256 267 264 267 263 257 269 248 247 271 140 158 147 207 246 182 179 151 154